This is the latest recevied weather packets stored in our database for station/object SP6RGZ-1. If no packets are shown the sender has not sent any weather packets the latest 10 day(s).
| Time | Temp. | Humidity | Pressure | Rain* | Wind** | Luminosity | Snow |
|---|---|---|---|---|---|---|---|
| 1787923802 | 31.67° C | 41% | 993.5 hPa | - | - | - | - |
| 1787922902 | 31.67° C | 41% | 993.7 hPa | - | - | - | - |
| 1787922002 | 32.22° C | 40% | 993.6 hPa | - | - | - | - |
| 1787921102 | 32.22° C | 40% | 993.5 hPa | - | - | - | - |
| 1787920202 | 32.22° C | 40% | 993.7 hPa | - | - | - | - |
| 1787919302 | 31.11° C | 41% | 994 hPa | - | - | - | - |
| 1787918402 | 31.11° C | 42% | 993.9 hPa | - | - | - | - |
| 1787917502 | 30.56° C | 43% | 994.4 hPa | - | - | - | - |
| 1787916602 | 30.56° C | 42% | 994.4 hPa | - | - | - | - |
| 1787915702 | 30.56° C | 43% | 994.5 hPa | - | - | - | - |
| 1787914802 | 30.56° C | 41% | 994.6 hPa | - | - | - | - |
| 1787913902 | 31.11° C | 41% | 994.5 hPa | - | - | - | - |
| 1787913002 | 30.56° C | 41% | 994.8 hPa | - | - | - | - |
| 1787912102 | 30° C | 41% | 995.4 hPa | - | - | - | - |
| 1787911201 | 30° C | 43% | 995.7 hPa | - | - | - | - |
| 1787910302 | 29.44° C | 44% | 995.8 hPa | - | - | - | - |
| 1787909466 | 29.44° C | 44% | 995.8 hPa | - | - | - | - |
| 1787908503 | 28.33° C | 46% | 996.2 hPa | - | - | - | - |
| 1787907602 | 27.78° C | 46% | 996.1 hPa | - | - | - | - |
| 1787906702 | 26.67° C | 48% | 996.5 hPa | - | - | - | - |
| 1787905802 | 26.67° C | 49% | 996.9 hPa | - | - | - | - |
| 1787904902 | 26.11° C | 49% | 996.9 hPa | - | - | - | - |
| 1787904002 | 25.56° C | 50% | 997.2 hPa | - | - | - | - |
| 1787903102 | 25° C | 52% | 997.3 hPa | - | - | - | - |
| 1787902201 | 23.89° C | 53% | 997 hPa | - | - | - | - |
* Rain since midnight (hover to see other rain measurements)
** Current wind speed in m/s (hover to see current wind gust speed)